COSMOS 1823 DEB, 18731

Orbit data source: Space-Track

COSMOS 1823 DEB, 18731 is space debris in LEO originally from a launch on Fri, 20 Feb 1987 UTC launched from the Plesetsk Missile And Space Complex (PKMTR). Debris objects in space refer to the collection of defunct objects orbiting the Earth. Examples of debris include non-operational satellites, rocket bodies, and fragments generated from explosions, collisions, or faulty payload assembly.

Loading next visibility...
Identifier
18731, 1987-020J
Orbit
LEO
Country
Flag of CISCIS
Related business
Manufacturer
Unknown
Mission
Spacecraft
Bus & Motor
Unknown
Mass
Unknown
Launch date (UTC)
1987-02-20 (39 years ago)
Launch vehicle
Unknown
Launch site
Plesetsk Missile And Space Complex (PKMTR)
Object type
Payload
Rocket body
Debris
Shape & HBR
Unknown shape, 0.2 m
Radar Cross Section
Medium (>0.1 m² and <1 m²)

Expand to show TLE details & history
Last TLE update: 2 days ago

TLE from 2 days ago
0 COSMOS 1823 DEB
1 18731U 87020J   26171.34812713  .00000096  00000-0  80575-3 0  9996
2 18731  73.6283  22.5075 0019529 139.9254  32.9431 12.44116974746795
Epoch: 2026-06-20T08:21Z
TLE epoch observation values (Epoch: 2026-06-20T08:21:18.184Z)
Latitude
6.6611°
Longitude
166.66119°
Altitude
1,478.05 km
Speed
7.131 km/s
True Right ascension
13h 22m 12s
True Declination
6° 37' 31"
Sunlit
Object was in daylight at epoch
Visualization orbit readout
Latitude
Unknown
Longitude
Unknown
Altitude
Unknown
Speed
Unknown
Apparent Right ascension
Unknown
Apparent Declination
Unknown
Sunlit
N/A
Visualization observer readout
Local Sidereal Time
05:04:26
Azimuth
Unknown
Elevation
Unknown
Doppler factor
Unknown
Orbital elements
Apogee altitude
1,502.432 km
Perigee altitude
1,471.712 km
Semi-major axis
7,865.209 km
Eccentricity
0.00195
Inclination
73.6283°
RAAN
22.5075°
Arg. of periapsis
139.9254°
True anomaly
33.06505°
Mean anomaly
32.9431°
Eccentric anomaly
33.00405°
Mean motion
3.11156 °/min
Orbital period
115.7 mins
BSTAR
0.00080575
Loading maneuver chart data...
Computing Atmospheric mass density...
Loading historical data...
Loading historical data...
Loading historical data...
Loading historical data...
Loading historical data...
Loading historical data...
Loading historical data...

Documentation

Showing up to 5 results
|